Wind_Speed
2 0 1 1 2 1 4 7 8 7 4 4 7 7 9 9 9 7 4 9 9 6
2 0 0 0 2 4 6 9 8 8 5 5 7 6 6 7 7 7 8 9 6 5
2 1 2 3 3 6 8 9 8 7 5 5 5 5 6 7 7 7 8 8 7 7
3 3 4 3 2 5 8 8 8 8 6 6 7 6 7 7 7 8 9 8 8 9
5 3 4 4 4 6 7 8 8 8 7 6 7 7 8 8 7 8 8 8 9 12
5 4 5 5 4 5 8 10 9 9 8 9 10 11 8 9 9 8 8 9 11 12
6 4 6 6 6 8 9 10 10 9 9 10 10 10 11 10 10 11 11 10 10 12
7 6 8 7 6 9 10 10 10 11 10 11 12 13 12 12 11 12 12 11 10 11
8 8 9 8 8 9 10 11 11 10 10 9 10 16 16 15 13 12 12 14 12 13
9 10 11 9 9 10 11 10 9 10 10 12 15 16 16 14 12 12 13 14 16 18
11 10 10 10 9 10 10 9 8 10 11 15 16 13 10 12 11 14 13 14 18 21
14 13 11 11 10 9 10 9 7 9 14 17 17 10 10 12 13 15 15 16 19 21
14 14 12 10 10 9 12 12 12 14 15 14 14 12 11 14 18 20 20 20 21 25
16 15 13 11 10 12 14 15 14 15 13 14 14 13 13 15 15 21 19 18 21 22
Wind_Direction
164 154 255 284 346 194 175 152 154 147 143 156 160 169 181 190 194 198 204 179 166 156
144 278 310 24 127 135 142 155 148 144 148 155 150 155 155 167 169 175 179 171 181 227
137 145 104 125 137 128 135 151 151 150 156 150 143 150 144 147 159 166 166 178 168 154
132 129 130 134 141 151 141 153 161 163 158 145 155 146 149 148 149 146 151 147 144 143
141 128 123 108 117 132 137 150 166 167 158 152 140 135 137 134 142 147 140 131 138 135
147 117 118 110 114 120 135 143 152 161 160 150 139 137 135 132 132 136 135 135 132 132
146 116 126 109 106 118 122 131 141 145 141 137 131 135 133 135 130 129 135 135 131 131
145 121 128 113 114 124 126 126 133 133 130 132 135 138 133 131 125 122 124 132 130 133
146 133 134 116 113 116 120 132 136 134 130 132 140 144 139 132 129 124 125 129 128 135
147 139 133 121 114 123 129 128 134 140 144 139 135 140 138 134 131 134 136 136 130 133
155 146 141 128 121 127 126 122 126 154 152 147 141 138 135 138 140 143 141 135 140 134
165 161 153 137 130 131 137 124 112 133 153 152 148 148 147 144 142 145 140 138 140 140
177 170 164 148 136 127 137 127 118 120 137 138 142 142 142 144 143 142 144 143 140 144
183 180 172 158 142 132 136 134 131 122 129 134 141 139 140 145 136 141 141 141 144 144
Height
738 739 740 739 739 739 739 740 742 743 744 744 745 747 748 750 752 753 755 755 758 759
738 738 739 738 738 739 739 740 742 744 745 745 746 747 748 750 750 752 754 755 757 759
737 738 738 738 739 739 739 741 743 744 746 746 747 748 749 750 751 753 754 756 757 759
737 738 737 738 739 739 740 742 744 745 746 748 747 749 750 751 751 753 755 756 758 760
737 737 738 739 739 740 740 743 745 746 747 747 748 749 750 752 753 754 756 758 759 761
737 738 738 739 740 740 741 743 745 747 748 748 750 751 752 754 756 757 758 760 762 764
737 738 739 740 741 741 742 744 746 749 750 750 752 753 754 756 758 760 761 762 765 767
737 739 740 741 742 743 743 745 748 750 752 753 754 756 757 759 761 762 764 766 767 770
738 739 740 742 744 746 746 747 748 751 754 756 756 757 759 761 763 765 767 769 771 774
738 740 741 743 745 747 748 750 752 753 755 756 758 760 762 763 766 768 769 771 773 776
738 741 743 744 745 747 750 752 753 754 756 758 760 763 764 765 768 769 771 774 776 779
737 740 743 744 746 748 750 752 753 755 756 758 762 765 766 767 769 771 774 777 780 783
737 740 743 745 746 748 750 753 756 757 760 762 764 767 767 769 770 773 777 780 783 787
736 739 743 745 747 749 752 754 757 760 762 764 766 769 771 772 773 775 780 783 787 791